Flag for Saudi Arabia Weather past 2 weeks in Jeddah, Saudi Arabia

Now
84 °F

Passing clouds.


Feels Like: 87 °F
Forecast: 75 / 82 °F
Wind: 14 mph from Southwest

Location: Jeddah King Abdul Aziz International Airport

Current Time: Dec 21, 2014 at 3:29:01 PM

Latest Report: Dec 21, 2014 at 3:00 PM


Visibility: N/A

Pressure: 29.89 "Hg

Humidity: 55%

Dew point: 66 °F

Location of JeddahLocation

Historic Weather in Jeddah — Graph

°F

Jeddah temperature yesterday

Maximum temperature yesterday: 88 °F (at 12:00 PM)
Minimum temperature yesterday: 75 °F (at 5:00 AM)
Average temperature yesterday: 82 °F

Past Weeks' High & Low Weather Summary

 TemperatureHumidityPressure
High91 °F (Dec 6, 2:00 PM)89% (Dec 10, 11:00 PM)30.04 "Hg (Dec 10, 11:00 PM)
Low72 °F (Dec 7, 7:00 AM)24% (Dec 18, 12:00 PM)29.80 "Hg (Dec 7, 3:00 PM)
Average81 °F58%29.93 "Hg
* Reported Dec 6 2:00 PM — Dec 21 2:00 PM, Jeddah, Weather by CustomWeather, © 2014

Note: Actual official high and low records may vary slightly from our data, if they occured in-between our weather recording intervals... More about our weather records

Advertising

Jeddah weather history for previous 24 hours

 ConditionsComfort  
Time TempWeatherWind HumidityBarometerVisibility
2:00 PM
Dec 21
84 °FPassing clouds.14 mph51%29.89 "HgN/A
1:00 PM86 °FPassing clouds.12 mph49%29.92 "HgN/A
12:00 PM86 °FPassing clouds.9 mph43%29.92 "HgN/A
11:00 AM86 °FSunny.5 mph46%29.95 "Hg10 mi
10:00 AM82 °FSunny.No wind55%29.95 "Hg10 mi
9:00 AM81 °FSunny.No wind62%29.95 "Hg10 mi
8:00 AM77 °FSunny.No wind69%29.92 "Hg10 mi
7:00 AM75 °FPassing clouds.No wind74%29.92 "Hg5 mi
6:00 AM75 °FClear.No wind78%29.92 "Hg10 mi
5:00 AM75 °FClear.No wind78%29.89 "Hg10 mi
4:00 AM77 °FClear.No wind74%29.89 "Hg10 mi
3:00 AM77 °FClear.No wind79%29.92 "Hg10 mi
2:00 AM79 °FClear.No wind74%29.92 "Hg10 mi
1:00 AM79 °FClear.5 mph74%29.92 "Hg10 mi
12:00 AM81 °FClear.5 mph70%29.95 "Hg10 mi
11:00 PM
Dec 20
81 °FPassing clouds.5 mph70%29.95 "HgN/A
10:00 PM81 °FPassing clouds.5 mph70%29.95 "HgN/A
9:00 PM82 °FPassing clouds.7 mph66%29.95 "HgN/A
8:00 PM82 °FPassing clouds.7 mph66%29.95 "HgN/A
7:00 PM82 °FPassing clouds.12 mph66%29.95 "HgN/A
6:00 PM84 °FPassing clouds.14 mph62%29.92 "HgN/A
5:00 PM86 °FPassing clouds.12 mph55%29.92 "HgN/A
4:00 PM88 °FPassing clouds.14 mph52%29.89 "HgN/A
3:00 PM88 °FScattered clouds.12 mph49%29.89 "HgN/A
Weather by CustomWeather, © 2014

See weather overviewHow to use our weather pages